Weather History for CYVR - February, 2014

Change the Weather History Date:

Sunday, February 2, 2014

  Actual Average Record
Temperature  
Mean Temperature 36 °F -  
Max Temperature 42 °F - - ()
Min Temperature 30 °F - - ()
Degree Days  
Heating Degree Days 29    
Moisture  
Dew Point 29 °F    
Average Humidity 75    
Maximum Humidity 93    
Minimum Humidity 53    
Precipitation  
Precipitation 0.00 in - - ()
Sea Level Pressure  
Sea Level Pressure 30.05 in    
Wind  
Wind Speed 4 mph ()    
Max Wind Speed 15 mph    
Max Gust Speed -    
Visibility 16.6 miles    
Events      
T = Trace of Precipitation, MM = Missing Value Source: Averaged Metar Reports

Daily Weather History Graph

Daily Weather History Graph

Search for Another Location

Airport or City:

Trip Planner

Search our weather history database for the weather conditions in past years. The results will help you decide how hot, cold, wet, or windy it might be!

Date:

Astronomy

Feb. 02, 2014 Rise Set
Actual Time 7:42 AM PST 5:11 PM PST
Civil Twilight 7:08 AM PST 5:45 PM PST
Nautical Twilight 6:29 AM PST 6:23 PM PST
Astronomical Twilight 5:52 AM PST 7:00 PM PST
Moon 8:50 AM PST (2/2) 9:26 PM PST (2/2)
Length of Visible Light 10h 37m
Length of Day
9h 29m
Waxing Crescent, 12% of the Moon is Illuminated
Feb 2
Waxing Crescent
Feb 6
First Quarter
Feb 14
Full
Feb 22
Last Quarter
Mar 1
New

Hourly Weather History & Observations

Time (PST) Temp. Windchill Dew Point Humidity Pressure Visibility Wind Dir Wind Speed Gust Speed Precip Events Conditions
12:00 AM 35.6 °F 32.8 °F 28.4 °F 75% 30.13 in 15.0 mi East 3.5 mph - N/A   Overcast
1:00 AM 35.6 °F - 30.2 °F 81% 30.12 in 15.0 mi Calm Calm - N/A   Overcast
2:00 AM 35.6 °F - 28.4 °F 75% 30.12 in 15.0 mi Variable 2.3 mph - N/A   Overcast
3:00 AM 35.6 °F - 30.2 °F 81% 30.11 in 15.0 mi Calm Calm - N/A   Overcast
4:00 AM 35 °F - 30 °F 75% 30.09 in 15 mi ESE 2.3 mph - -   Overcast
4:00 AM 35.6 °F - 30.2 °F 81% 30.09 in 15.0 mi ESE 2.3 mph - N/A   Overcast
5:00 AM 33.8 °F - 30.2 °F 87% 30.08 in 15.0 mi East 2.3 mph - N/A   Overcast
6:00 AM 33.8 °F - 32.0 °F 93% 30.07 in 15.0 mi Variable 2.3 mph - N/A   Overcast
7:00 AM 33.8 °F - 30.2 °F 87% 30.07 in 15.0 mi Calm Calm - N/A   Overcast
8:00 AM 33.8 °F 28.6 °F 30.2 °F 87% 30.06 in 15.0 mi SE 5.8 mph - N/A   Overcast
9:00 AM 35.6 °F 31.7 °F 32.0 °F 87% 30.06 in 15.0 mi SE 4.6 mph - N/A   Mostly Cloudy
10:00 AM 36 °F - 31 °F 76% 30.06 in 15 mi East 3.5 mph - -   Scattered Clouds
10:00 AM 35.6 °F 32.8 °F 32.0 °F 87% 30.06 in 15.0 mi East 3.5 mph - N/A   Mostly Cloudy
11:00 AM 37.4 °F 32.8 °F 30.2 °F 75% 30.06 in 15.0 mi ESE 5.8 mph - N/A   Mostly Cloudy
12:00 PM 39.2 °F - 30.2 °F 70% 30.04 in 20.0 mi SW 2.3 mph - N/A   Mostly Cloudy
1:00 PM 39.2 °F 34.2 °F 32.0 °F 75% 30.03 in 20.0 mi WSW 6.9 mph - N/A   Mostly Cloudy
2:00 PM 41.0 °F 35.2 °F 24.8 °F 53% 30.02 in 15.0 mi NW 9.2 mph - N/A   Mostly Cloudy
3:00 PM 42.8 °F 37.0 °F 26.6 °F 53% 30.01 in 20.0 mi WNW 10.4 mph - N/A   Mostly Cloudy
4:00 PM 40 °F - 30 °F 58% 30.01 in 19 mi WNW 10.4 mph - -   Scattered Clouds
4:00 PM 41.0 °F 34.3 °F 30.2 °F 65% 30.01 in 20.0 mi WNW 11.5 mph - N/A   Scattered Clouds
5:00 PM 39.2 °F 30.8 °F 33.8 °F 81% 30.02 in 20.0 mi WNW 15.0 mph - N/A   Scattered Clouds
6:00 PM 35.6 °F 31.7 °F 30.2 °F 81% 30.01 in 20.0 mi NW 4.6 mph - N/A   Scattered Clouds
7:00 PM 35.6 °F 29.2 °F 30.2 °F 81% 30.02 in 20.0 mi ENE 8.1 mph - N/A   Scattered Clouds
8:00 PM 33.8 °F 26.4 °F 26.6 °F 75% 30.02 in 20.0 mi East 9.2 mph - N/A   Mostly Cloudy
9:00 PM 32.0 °F 24.2 °F 21.2 °F 64% 30.02 in 15.0 mi East 9.2 mph - N/A   Partly Cloudy
10:00 PM 30 °F - 21 °F 58% 30.04 in 15 mi East 6.9 mph - -  
10:00 PM 30.2 °F 24.3 °F 21.2 °F 69% 30.04 in 15.0 mi East 5.8 mph - N/A   Clear
11:00 PM 32.0 °F 26.4 °F 21.2 °F 64% 30.06 in 15.0 mi East 5.8 mph - N/A   Mostly Cloudy